HISTORICAL SENSOR DATA

Sensor Data Report

DB LIVE
CURRENT TIME--:--:--
DEVICE NETWORK Gateway Status
13 ESP · realtime ~1s · history 60s
Weather WS-MOD-01
ONLINE
Actuator ACT-MOD-01
OFFLINE
Mainboard L3 MB-L3-01
ONLINE
Mainboard L5 MB-L5-01
ONLINE
Remote AC AC-REMOTE-01
ONLINE
PZEM L3-01 PWR-L3-01
OFFLINE
PZEM L3-02 PWR-L3-02
OFFLINE
PZEM L3-03 PWR-L3-03
OFFLINE
PZEM L3-04 PWR-L3-04
OFFLINE
PZEM L5-01 PWR-L5-01
ONLINE
PZEM L5-02 PWR-L5-02
ONLINE
PZEM L5-03 PWR-L5-03
OFFLINE
PZEM L5-04 PWR-L5-04
OFFLINE
REPORT FILTER

Periode & Sensor

DATABASE HISTORY
RESET
QUICK RANGE Hari ini 7 hari 30 hari
PERIODE02 Sep 2026sampai 02 Sep 2026
TOTAL DATA40,278sensor readings
MINIMUM-0.50sesuai filter
AVERAGE56.78sesuai filter
MAXIMUM998.00sesuai filter
REPORT RESULT

Data Sensor

02/09/2026 — 02/09/2026 EXPORT CSV
NOTANGGALWAKTUDEVICECHANNELSENSORVALUEUNIT
13001 02/09/2026 14:54:02 MB-L3-01Mainboard Lantai 3 L3-AI-02 Analog Input 2 3.12 V
13002 02/09/2026 14:54:02 MB-L3-01Mainboard Lantai 3 L3-LUX-04 Illuminance / LUX 4 81.20 lux
13003 02/09/2026 14:54:02 MB-L5-01Mainboard Lantai 5 L5-HFT-02 Heat Flow Temperature 2 30.10 °C
13004 02/09/2026 14:54:02 MB-L5-01Mainboard Lantai 5 L5-SHT-01-RH SHT20 1 Humidity 48.30 %RH
13005 02/09/2026 14:54:02 MB-L3-01Mainboard Lantai 3 L3-HFT-02 Heat Flow Temperature 2 29.10 °C
13006 02/09/2026 14:54:02 MB-L3-01Mainboard Lantai 3 L3-SHT-01-T SHT20 1 Temperature 32.20 °C
13007 02/09/2026 14:54:02 MB-L5-01Mainboard Lantai 5 L5-HFT-01 Heat Flow Temperature 1 30.30 °C
13008 02/09/2026 14:54:02 MB-L5-01Mainboard Lantai 5 L5-LUX-01 Illuminance / LUX 1 232.10 lux
13009 02/09/2026 14:54:02 MB-L5-01Mainboard Lantai 5 L5-LUX-06 Illuminance / LUX 6 228.60 lux
13010 02/09/2026 14:54:02 MB-L5-01Mainboard Lantai 5 L5-ST-02 Surface Temperature 2 30.50 °C
13011 02/09/2026 14:54:02 MB-L3-01Mainboard Lantai 3 L3-LUX-02 Illuminance / LUX 2 45.30 lux
13012 02/09/2026 14:54:02 MB-L5-01Mainboard Lantai 5 L5-LUX-05 Illuminance / LUX 5 412.30 lux
13013 02/09/2026 14:54:02 MB-L3-01Mainboard Lantai 3 L3-SHT-01-RH SHT20 1 Humidity 48.20 %RH
13014 02/09/2026 14:54:02 MB-L3-01Mainboard Lantai 3 L3-AI-03 Analog Input 3 3.12 V
13015 02/09/2026 14:54:02 MB-L5-01Mainboard Lantai 5 L5-LUX-02 Illuminance / LUX 2 242.90 lux
13016 02/09/2026 14:54:02 MB-L5-01Mainboard Lantai 5 L5-ST-01 Surface Temperature 1 30.30 °C
13017 02/09/2026 14:54:02 MB-L3-01Mainboard Lantai 3 L3-SHT-02-RH SHT20 2 Humidity 48.40 %RH
13018 02/09/2026 14:54:02 MB-L3-01Mainboard Lantai 3 L3-BGT-01 Black Globe Temperature 1 29.90 °C
13019 02/09/2026 14:54:02 MB-L5-01Mainboard Lantai 5 L5-RAD-02 Radiation 2 2.00 W/m²
13020 02/09/2026 14:54:02 MB-L3-01Mainboard Lantai 3 L3-LUX-01 Illuminance / LUX 1 28.40 lux
13021 02/09/2026 14:54:02 MB-L3-01Mainboard Lantai 3 L3-RAD-02 Radiation 2 2.00 W/m²
13022 02/09/2026 14:54:02 MB-L5-01Mainboard Lantai 5 L5-AI-06 Analog Input 6 3.05 V
13023 02/09/2026 14:54:02 MB-L3-01Mainboard Lantai 3 L3-LUX-03 Illuminance / LUX 3 109.30 lux
13024 02/09/2026 14:54:02 MB-L5-01Mainboard Lantai 5 L5-SHT-02-RH SHT20 2 Humidity 48.10 %RH
13025 02/09/2026 14:54:02 MB-L3-01Mainboard Lantai 3 L3-AI-04 Analog Input 4 3.12 V
13026 02/09/2026 14:54:02 MB-L5-01Mainboard Lantai 5 L5-LUX-04 Illuminance / LUX 4 244.90 lux
13027 02/09/2026 14:54:02 MB-L3-01Mainboard Lantai 3 L3-BGT-02 Black Globe Temperature 2 30.00 °C
13028 02/09/2026 14:54:02 MB-L3-01Mainboard Lantai 3 L3-RAD-01 Radiation 1 2.00 W/m²
13029 02/09/2026 14:54:02 MB-L5-01Mainboard Lantai 5 L5-AI-05 Analog Input 5 3.05 V
13030 02/09/2026 14:54:02 MB-L5-01Mainboard Lantai 5 L5-SHT-03-T SHT20 3 Temperature 32.10 °C
13031 02/09/2026 14:54:02 MB-L5-01Mainboard Lantai 5 L5-SHT-01-T SHT20 1 Temperature 32.40 °C
13032 02/09/2026 14:54:02 MB-L3-01Mainboard Lantai 3 L3-SHT-03-RH SHT20 3 Humidity 49.20 %RH
13033 02/09/2026 14:54:02 MB-L5-01Mainboard Lantai 5 L5-SHT-02-T SHT20 2 Temperature 32.30 °C
13034 02/09/2026 14:54:02 MB-L5-01Mainboard Lantai 5 L5-SHT-03-RH SHT20 3 Humidity 48.50 %RH
13035 02/09/2026 14:54:02 MB-L5-01Mainboard Lantai 5 L5-AI-04 Analog Input 4 3.05 V
13036 02/09/2026 14:54:02 MB-L3-01Mainboard Lantai 3 L3-ST-01 Surface Temperature 1 30.00 °C
13037 02/09/2026 14:54:02 MB-L3-01Mainboard Lantai 3 L3-AI-05 Analog Input 5 3.12 V
13038 02/09/2026 14:54:02 MB-L3-01Mainboard Lantai 3 L3-SHT-03-T SHT20 3 Temperature 31.90 °C
13039 02/09/2026 14:54:02 MB-L5-01Mainboard Lantai 5 L5-RAD-01 Radiation 1 2.00 W/m²
13040 02/09/2026 14:54:02 MB-L5-01Mainboard Lantai 5 L5-AI-03 Analog Input 3 3.05 V
13041 02/09/2026 14:54:02 MB-L3-01Mainboard Lantai 3 L3-SHT-02-T SHT20 2 Temperature 32.00 °C
13042 02/09/2026 14:54:02 MB-L5-01Mainboard Lantai 5 L5-AI-02 Analog Input 2 3.05 V
13043 02/09/2026 14:54:02 MB-L3-01Mainboard Lantai 3 L3-BGT-03 Black Globe Temperature 3 29.40 °C
13044 02/09/2026 14:54:00 MB-L5-01Mainboard Lantai 5 L5-LUX-03 Illuminance / LUX 3 156.40 lux
13045 02/09/2026 14:54:00 MB-L5-01Mainboard Lantai 5 L5-BGT-02 Black Globe Temperature 2 29.70 °C
13046 02/09/2026 14:54:00 MB-L5-01Mainboard Lantai 5 L5-BGT-01 Black Globe Temperature 1 29.80 °C
13047 02/09/2026 14:54:00 MB-L3-01Mainboard Lantai 3 L3-LUX-05 Illuminance / LUX 5 37.50 lux
13048 02/09/2026 14:54:00 MB-L3-01Mainboard Lantai 3 L3-AI-02 Analog Input 2 3.12 V
13049 02/09/2026 14:54:00 MB-L3-01Mainboard Lantai 3 L3-LUX-04 Illuminance / LUX 4 69.10 lux
13050 02/09/2026 14:54:00 MB-L5-01Mainboard Lantai 5 L5-HFT-02 Heat Flow Temperature 2 30.10 °C
13051 02/09/2026 14:54:00 MB-L5-01Mainboard Lantai 5 L5-SHT-01-RH SHT20 1 Humidity 48.30 %RH
13052 02/09/2026 14:54:00 MB-L3-01Mainboard Lantai 3 L3-HFT-02 Heat Flow Temperature 2 29.30 °C
13053 02/09/2026 14:54:00 MB-L3-01Mainboard Lantai 3 L3-SHT-01-T SHT20 1 Temperature 32.10 °C
13054 02/09/2026 14:54:00 MB-L5-01Mainboard Lantai 5 L5-HFT-01 Heat Flow Temperature 1 30.20 °C
13055 02/09/2026 14:54:00 MB-L5-01Mainboard Lantai 5 L5-LUX-01 Illuminance / LUX 1 242.90 lux
13056 02/09/2026 14:54:00 MB-L5-01Mainboard Lantai 5 L5-LUX-06 Illuminance / LUX 6 218.40 lux
13057 02/09/2026 14:54:00 MB-L5-01Mainboard Lantai 5 L5-ST-02 Surface Temperature 2 30.50 °C
13058 02/09/2026 14:54:00 MB-L3-01Mainboard Lantai 3 L3-LUX-02 Illuminance / LUX 2 33.00 lux
13059 02/09/2026 14:54:00 MB-L5-01Mainboard Lantai 5 L5-LUX-05 Illuminance / LUX 5 377.80 lux
13060 02/09/2026 14:54:00 MB-L3-01Mainboard Lantai 3 L3-SHT-01-RH SHT20 1 Humidity 48.20 %RH
13061 02/09/2026 14:54:00 MB-L3-01Mainboard Lantai 3 L3-AI-03 Analog Input 3 3.12 V
13062 02/09/2026 14:54:00 MB-L5-01Mainboard Lantai 5 L5-LUX-02 Illuminance / LUX 2 242.90 lux
13063 02/09/2026 14:54:00 MB-L5-01Mainboard Lantai 5 L5-ST-01 Surface Temperature 1 30.30 °C
13064 02/09/2026 14:54:00 MB-L3-01Mainboard Lantai 3 L3-SHT-02-RH SHT20 2 Humidity 48.40 %RH
13065 02/09/2026 14:54:00 MB-L3-01Mainboard Lantai 3 L3-BGT-01 Black Globe Temperature 1 29.90 °C
13066 02/09/2026 14:54:00 MB-L5-01Mainboard Lantai 5 L5-RAD-02 Radiation 2 2.00 W/m²
13067 02/09/2026 14:54:00 MB-L3-01Mainboard Lantai 3 L3-LUX-01 Illuminance / LUX 1 23.00 lux
13068 02/09/2026 14:54:00 MB-L3-01Mainboard Lantai 3 L3-RAD-02 Radiation 2 2.00 W/m²
13069 02/09/2026 14:54:00 MB-L5-01Mainboard Lantai 5 L5-AI-06 Analog Input 6 3.05 V
13070 02/09/2026 14:54:00 MB-L3-01Mainboard Lantai 3 L3-LUX-03 Illuminance / LUX 3 85.50 lux
13071 02/09/2026 14:54:00 MB-L5-01Mainboard Lantai 5 L5-SHT-02-RH SHT20 2 Humidity 48.10 %RH
13072 02/09/2026 14:54:00 MB-L3-01Mainboard Lantai 3 L3-AI-04 Analog Input 4 3.12 V
13073 02/09/2026 14:54:00 MB-L5-01Mainboard Lantai 5 L5-LUX-04 Illuminance / LUX 4 244.90 lux
13074 02/09/2026 14:54:00 MB-L3-01Mainboard Lantai 3 L3-BGT-02 Black Globe Temperature 2 30.00 °C
13075 02/09/2026 14:54:00 MB-L3-01Mainboard Lantai 3 L3-RAD-01 Radiation 1 2.00 W/m²
13076 02/09/2026 14:54:00 MB-L5-01Mainboard Lantai 5 L5-AI-05 Analog Input 5 3.05 V
13077 02/09/2026 14:54:00 MB-L5-01Mainboard Lantai 5 L5-SHT-03-T SHT20 3 Temperature 32.20 °C
13078 02/09/2026 14:54:00 MB-L5-01Mainboard Lantai 5 L5-SHT-01-T SHT20 1 Temperature 32.30 °C
13079 02/09/2026 14:54:00 MB-L3-01Mainboard Lantai 3 L3-SHT-03-RH SHT20 3 Humidity 49.20 %RH
13080 02/09/2026 14:54:00 MB-L5-01Mainboard Lantai 5 L5-SHT-02-T SHT20 2 Temperature 32.30 °C
13081 02/09/2026 14:54:00 MB-L5-01Mainboard Lantai 5 L5-SHT-03-RH SHT20 3 Humidity 48.50 %RH
13082 02/09/2026 14:54:00 MB-L5-01Mainboard Lantai 5 L5-AI-04 Analog Input 4 3.05 V
13083 02/09/2026 14:54:00 MB-L3-01Mainboard Lantai 3 L3-ST-01 Surface Temperature 1 30.00 °C
13084 02/09/2026 14:54:00 MB-L3-01Mainboard Lantai 3 L3-AI-05 Analog Input 5 3.12 V
13085 02/09/2026 14:54:00 MB-L3-01Mainboard Lantai 3 L3-SHT-03-T SHT20 3 Temperature 31.80 °C
13086 02/09/2026 14:54:00 MB-L5-01Mainboard Lantai 5 L5-RAD-01 Radiation 1 2.00 W/m²
13087 02/09/2026 14:54:00 MB-L5-01Mainboard Lantai 5 L5-AI-03 Analog Input 3 3.05 V
13088 02/09/2026 14:54:00 MB-L3-01Mainboard Lantai 3 L3-SHT-02-T SHT20 2 Temperature 32.00 °C
13089 02/09/2026 14:54:00 MB-L5-01Mainboard Lantai 5 L5-AI-02 Analog Input 2 3.05 V
13090 02/09/2026 14:54:00 MB-L3-01Mainboard Lantai 3 L3-BGT-03 Black Globe Temperature 3 29.50 °C
13091 02/09/2026 14:54:00 MB-L5-01Mainboard Lantai 5 L5-AI-01 Analog Input 1 3.05 V
13092 02/09/2026 14:54:00 MB-L3-01Mainboard Lantai 3 L3-ST-02 Surface Temperature 2 30.30 °C
13093 02/09/2026 14:54:00 MB-L3-01Mainboard Lantai 3 L3-AI-06 Analog Input 6 3.12 V
13094 02/09/2026 14:54:00 MB-L3-01Mainboard Lantai 3 L3-LUX-06 Illuminance / LUX 6 28.90 lux
13095 02/09/2026 14:54:00 MB-L3-01Mainboard Lantai 3 L3-AI-01 Analog Input 1 3.12 V
13096 02/09/2026 14:54:00 MB-L5-01Mainboard Lantai 5 L5-BGT-03 Black Globe Temperature 3 29.80 °C
13097 02/09/2026 14:54:00 MB-L3-01Mainboard Lantai 3 L3-HFT-01 Heat Flow Temperature 1 29.70 °C
13098 02/09/2026 14:53:58 MB-L5-01Mainboard Lantai 5 L5-LUX-01 Illuminance / LUX 1 185.20 lux
13099 02/09/2026 14:53:58 MB-L5-01Mainboard Lantai 5 L5-LUX-06 Illuminance / LUX 6 176.60 lux
13100 02/09/2026 14:53:58 MB-L5-01Mainboard Lantai 5 L5-ST-02 Surface Temperature 2 30.40 °C
Menampilkan maksimal 100 data per halaman